CAPE
120 262 294 181 199 95 98 113 55 225 258 282 105 76 46 0 0 0 0 0 0 0 0 0 0 0 0 0 0 0 0 0
7 195 241 259 235 97 167 276 229 257 222 142 148 105 98 80 0 0 0 0 0 0 0 0 0 0 0 0 0 0 0 0
0 244 290 273 282 170 193 266 196 225 167 128 172 93 81 8 0 0 0 0 0 0 0 0 0 0 0 0 0 0 0 0
37 236 441 371 278 372 326 192 188 253 313 96 188 119 47 18 0 0 0 0 0 0 0 0 0 0 0 0 0 0 0 0
142 290 490 421 357 488 523 327 167 265 235 60 123 114 87 29 0 0 0 0 0 0 0 0 0 0 0 0 0 0 0 0
175 163 507 468 418 580 562 488 212 126 141 27 83 140 89 9 0 0 0 0 0 0 0 0 0 0 0 0 0 0 0 0
232 174 256 505 443 648 625 512 366 197 178 55 25 111 98 63 0 0 0 0 0 0 0 0 0 0 0 0 0 0 0 0
148 244 229 358 515 622 699 602 484 310 216 52 28 31 80 7 0 0 0 0 0 0 0 0 0 0 0 0 0 0 0 0
0 243 300 268 522 687 771 686 504 415 272 57 26 0 21 0 0 0 0 0 0 0 0 0 0 0 0 0 0 0 0 0
0 152 173 227 344 645 769 695 477 399 370 23 5 0 1 10 0 0 0 0 0 0 0 0 0 0 0 0 0 0 0 0
3 104 133 175 266 431 638 673 543 69 300 26 49 0 0 0 0 0 0 0 0 1 0 0 0 0 0 0 0 0 0 0
22 35 62 166 183 284 519 614 451 23 22 33 30 0 0 0 0 0 0 0 4 0 1 0 0 0 0 0 0 0 0 0
31 60 9 11 26 88 346 329 15 26 46 32 37 1 0 0 0 0 0 2 2 9 1 0 0 0 0 0 0 0 0 0
14 0 1 0 0 0 5 0 8 18 51 47 41 32 0 0 0 0 7 7 14 1 0 0 0 0 0 0 0 0 0 0
3 0 15 1 0 0 0 0 14 25 35 30 28 17 0 0 0 3 2 20 13 0 0 0 0 0 0 0 0 0 0 0
39 11 4 7 0 0 0 0 0 4 20 19 20 3 0 0 0 6 37 16 3 0 0 0 0 0 0 0 0 0 0 0
57 24 8 1 0 0 0 0 0 0 1 10 8 0 0 0 1 12 2 0 0 0 0 0 0 0 0 0 0 0 0 0
28 30 13 7 3 0 1 0 0 0 0 1 0 0 0 3 20 0 2 0 0 0 0 0 0 0 0 0 0 0 0 0
66 36 16 14 0 0 0 0 0 0 0 0 2 0 0 36 19 9 5 1 0 0 0 0 0 0 0 0 0 0 0 0
CIN
-234 -139 -121 -96 -109 -167 -250 -213 -192 -102 -83 -82 -111 -53 -90 -0 -0 -0 -0 -0 -0 -0 -0 -0 -0 -0 -0 -0 -0 -0 -0 -0
-140 -171 -89 -132 -123 -249 -279 -211 -169 -108 -115 -116 -77 -66 -58 -44 -0 -0 -0 -0 -0 -0 -0 -0 -0 -0 -0 -0 -0 -0 -0 -0
-0 -150 -72 -145 -165 -239 -269 -258 -209 -147 -101 -124 -79 -61 -45 -30 -0 -0 -0 -0 -0 -0 -0 -0 -0 -0 -0 -0 -0 -0 -0 -0
-426 -156 -94 -106 -184 -230 -255 -284 -249 -182 -111 -105 -71 -50 -57 -28 -7 -0 -0 -0 -0 -0 -0 -0 -0 -0 -0 -0 -0 -0 -0 -0
-317 -235 -108 -117 -183 -193 -158 -151 -228 -171 -113 -96 -98 -67 -31 -24 -2 -0 -0 -0 -0 -0 -0 -0 -0 -0 -0 -0 -0 -0 -0 -0
-362 -292 -126 -150 -126 -208 -172 -119 -60 -187 -117 -114 -95 -81 -38 -59 -0 -0 -0 -0 -0 -0 -0 -0 -0 -0 -0 -0 -0 -0 -0 -0
-318 -305 -221 -144 -158 -163 -135 -116 -64 -89 -71 -68 -116 -37 -20 -19 -20 -0 -0 -0 -0 -0 -0 -0 -0 -0 -0 -0 -0 -0 -0 -0
-263 -272 -257 -179 -145 -147 -125 -113 -80 -74 -76 -29 -13 -48 -3 -25 -0 -0 -0 -0 -0 -0 -0 -0 -0 -0 -0 -0 -0 -0 -0 -0
-0 -316 -281 -281 -171 -139 -124 -110 -92 -72 -57 -2 -3 -4 -7 -0 -0 -0 -0 -0 -0 -0 -0 -0 -0 -0 -0 -0 -0 -0 -0 -0
-119 -425 -340 -239 -223 -137 -128 -108 -84 -10 -16 -2 -9 -0 -0 -10 -0 -0 -0 -0 -0 -0 -0 -0 -0 -0 -0 -0 -0 -0 -0 -0
-187 -356 -281 -205 -197 -166 -95 -47 -34 -49 -0 -2 -2 -0 -0 -0 -0 -0 -0 -0 -6 -5 -0 -0 -0 -0 -0 -0 -0 -0 -0 -0
-81 -264 -173 -155 -128 -130 -45 -25 -16 -10 -1 -0 -2 -1 -0 -0 -0 -0 -0 -0 -1 -0 -8 -0 -0 -0 -0 -0 -0 -0 -0 -0
-47 -26 -19 -42 -96 -66 -0 -2 -3 -4 -0 -1 -1 -0 -0 -0 -0 -0 -0 -4 -19 -9 -7 -0 -0 -0 -0 -0 -0 -0 -0 -0
-65 -0 -21 -0 -0 -14 -1 -0 -0 -11 -23 -1 -2 -1 -0 -0 -0 -0 -1 -2 -3 -7 -0 -0 -0 -0 -0 -0 -0 -0 -0 -0
-83 -0 -33 -60 -0 -0 -0 -1 -1 -0 -0 -0 -0 -0 -0 -0 -0 -1 -2 -1 -5 -8 -0 -0 -0 -0 -0 -0 -0 -0 -0 -0
-82 -95 -54 -25 -1 -0 -0 -0 -0 -1 -1 -0 -0 -1 -0 -0 -1 -1 -0 -5 -6 -0 -0 -0 -0 -0 -0 -0 -0 -0 -0 -0
-83 -113 -152 -94 -0 -0 -0 -0 -0 -0 -0 -0 -0 -0 -0 -0 -1 -0 -0 -0 -0 -0 -0 -0 -0 -0 -0 -0 -0 -0 -0 -0
-53 -81 -75 -94 -3 -2 -8 -35 -17 -0 -0 -0 -0 -0 -0 -1 -0 -0 -1 -0 -0 -0 -0 -0 -0 -0 -0 -0 -0 -0 -0 -0
-30 -26 -37 -31 -0 -0 -0 -0 -0 -0 -0 -0 -0 -0 -0 -0 -1 -2 -0 -0 -0 -0 -0 -0 -0 -0 -0 -0 -0 -0 -0 -0
Wind_Speed
40 40 37 41 37 nan nan 43 nan 46 46 46 42 nan nan nan nan nan nan nan nan nan nan nan nan nan nan nan nan nan nan nan
nan 44 41 38 36 nan 38 43 45 45 47 49 46 45 nan nan nan nan nan nan nan nan nan nan nan nan nan nan nan nan nan nan
nan 44 43 37 33 35 37 39 44 44 46 47 47 nan nan nan nan nan nan nan nan nan nan nan nan nan nan nan nan nan nan nan
nan 46 42 38 31 31 35 42 43 44 49 nan 52 53 nan nan nan nan nan nan nan nan nan nan nan nan nan nan nan nan nan nan
40 41 44 37 31 32 35 43 45 46 51 nan 55 52 nan nan nan nan nan nan nan nan nan nan nan nan nan nan nan nan nan nan
37 41 44 41 42 38 29 34 40 45 49 nan nan 53 nan nan nan nan nan nan nan nan nan nan nan nan nan nan nan nan nan nan
35 38 44 51 50 45 38 40 41 37 46 nan nan 56 nan nan nan nan nan nan nan nan nan nan nan nan nan nan nan nan nan nan
40 43 48 48 46 41 37 40 47 43 50 nan nan nan nan nan nan nan nan nan nan nan nan nan nan nan nan nan nan nan nan nan
nan 50 52 47 46 42 40 46 49 50 49 nan nan nan nan nan nan nan nan nan nan nan nan nan nan nan nan nan nan nan nan nan
nan 48 49 46 42 38 42 46 47 59 46 nan nan nan nan nan nan nan nan nan nan nan nan nan nan nan nan nan nan nan nan nan
nan 56 57 53 44 44 42 45 50 nan 54 nan nan nan nan nan nan nan nan nan nan nan nan nan nan nan nan nan nan nan nan nan
nan nan nan 49 50 48 47 49 55 nan nan nan nan nan nan nan nan nan nan nan nan nan nan nan nan nan nan nan nan nan nan nan
nan nan nan nan nan nan 43 49 nan nan nan nan nan nan nan nan nan nan nan nan nan nan nan nan nan nan nan nan nan nan nan nan
nan nan nan nan nan nan nan nan nan nan nan nan nan nan nan nan nan nan nan nan nan nan nan nan nan nan nan nan nan nan nan nan
nan nan nan nan nan nan nan nan nan nan nan nan nan nan nan nan nan nan nan nan nan nan nan nan nan nan nan nan nan nan nan nan
nan nan nan nan nan nan nan nan nan nan nan nan nan nan nan nan nan nan nan nan nan nan nan nan nan nan nan nan nan nan nan nan
nan nan nan nan nan nan nan nan nan nan nan nan nan nan nan nan nan nan nan nan nan nan nan nan nan nan nan nan nan nan nan nan
nan nan nan nan nan nan nan nan nan nan nan nan nan nan nan nan nan nan nan nan nan nan nan nan nan nan nan nan nan nan nan nan
nan nan nan nan nan nan nan nan nan nan nan nan nan nan nan nan nan nan nan nan nan nan nan nan nan nan nan nan nan nan nan nan
Wind_Direction
317 315 314 307 307 nan nan 285 nan 280 275 270 266 nan nan nan nan nan nan nan nan nan nan nan nan nan nan nan nan nan nan nan
nan 311 312 312 304 nan 303 293 287 279 279 279 276 272 nan nan nan nan nan nan nan nan nan nan nan nan nan nan nan nan nan nan
nan 310 312 318 314 304 301 297 292 283 277 276 271 nan nan nan nan nan nan nan nan nan nan nan nan nan nan nan nan nan nan nan
nan 307 314 309 320 325 310 299 291 282 280 nan 266 267 nan nan nan nan nan nan nan nan nan nan nan nan nan nan nan nan nan nan
305 305 304 314 318 307 302 301 294 284 282 nan 280 272 nan nan nan nan nan nan nan nan nan nan nan nan nan nan nan nan nan nan
297 303 306 309 302 309 293 298 291 284 284 nan nan 274 nan nan nan nan nan nan nan nan nan nan nan nan nan nan nan nan nan nan
286 301 296 300 300 299 290 289 286 281 280 nan nan 274 nan nan nan nan nan nan nan nan nan nan nan nan nan nan nan nan nan nan
281 293 294 300 304 303 295 287 296 291 284 nan nan nan nan nan nan nan nan nan nan nan nan nan nan nan nan nan nan nan nan nan
nan 294 298 304 304 302 298 296 293 283 279 nan nan nan nan nan nan nan nan nan nan nan nan nan nan nan nan nan nan nan nan nan
nan 296 297 291 287 289 290 287 285 281 281 nan nan nan nan nan nan nan nan nan nan nan nan nan nan nan nan nan nan nan nan nan
nan 277 278 277 274 274 272 277 275 nan 272 nan nan nan nan nan nan nan nan nan nan nan nan nan nan nan nan nan nan nan nan nan
nan nan nan 272 270 262 263 267 267 nan nan nan nan nan nan nan nan nan nan nan nan nan nan nan nan nan nan nan nan nan nan nan
nan nan nan nan nan nan 261 248 nan nan nan nan nan nan nan nan nan nan nan nan nan nan nan nan nan nan nan nan nan nan nan nan
nan nan nan nan nan nan nan nan nan nan nan nan nan nan nan nan nan nan nan nan nan nan nan nan nan nan nan nan nan nan nan nan
nan nan nan nan nan nan nan nan nan nan nan nan nan nan nan nan nan nan nan nan nan nan nan nan nan nan nan nan nan nan nan nan
nan nan nan nan nan nan nan nan nan nan nan nan nan nan nan nan nan nan nan nan nan nan nan nan nan nan nan nan nan nan nan nan
nan nan nan nan nan nan nan nan nan nan nan nan nan nan nan nan nan nan nan nan nan nan nan nan nan nan nan nan nan nan nan nan
nan nan nan nan nan nan nan nan nan nan nan nan nan nan nan nan nan nan nan nan nan nan nan nan nan nan nan nan nan nan nan nan
nan nan nan nan nan nan nan nan nan nan nan nan nan nan nan nan nan nan nan nan nan nan nan nan nan nan nan nan nan nan nan nan